BEIDOU-3 M10 (C30)

Last updated on Wed Aug 26 2026 00:04:16 GMT+0000 (Coordinated Universal Time)

1 43246U 18029B 26236.61354361 -.00000029 00000+0 00000+0 0 9997 2 43246 54.1261 297.5773 0002742 24.0684 336.0234 1.86229551 57157
UTC large
Height (km)
Speed (km/s)
/
Latitude / Longitude
Inclination (degrees)
Orbital Period (minutes)
Azimuth
Elevation
Range (km)
Doppler Factor

Next 0 passes for location: London (51.5072 / 0.1276)

No passes found over London.
BEIDOU-3 M10 (C30)